Hourly Data Report for October 07, 2017

All times are specified in Local Standard Time (LST). Add 1 hour to adjust for Daylight Saving Time where and when it is observed.

TULITA A
NORTHWEST TERRITORIES

64°54'35.000" N
125°34'10.000" W
100.30 m
2201705
ZFN

Related Data

No related data is available for this station

Download Data

Hourly Data (October 2017)
Hourly Data Report for October 7, 2017
Temp Definition
°C
Dew Point Temp Definition
°C
Rel Hum Definition
%
Wind Dir Definition
10's deg

Wind Spd Definition
km/h
Visibility Definition
km
Stn Press Definition
kPa
Hmdx Definition


Wind Chill Definition


Weather Definition


TIME
00:00 Legend Double Dagger 2.5 0.2 85 3 14 LegendMM 98.84     LegendNANA
01:00 Legend Double Dagger 1.2 0.3 94 33 7 LegendMM 98.92     LegendNANA
02:00 Legend Double Dagger 1.3 0.3 93 34 8 LegendMM 99.01     LegendNANA
03:00 Legend Double Dagger 1.0 0.1 94 35 10 LegendMM 99.08     LegendNANA
04:00 Legend Double Dagger 0.6 -0.3 94 36 8 LegendMM 99.16     LegendNANA
05:00 Legend Double Dagger 0.4 -0.3 95 32 7 LegendMM 99.25     LegendNANA
06:00 Legend Double Dagger 0.2 -0.3 96 35 5 LegendMM 99.31     LegendNANA
07:00 Legend Double Dagger 0.2 -0.4 96 1 6 LegendMM 99.37     LegendNANA
08:00 Legend Double Dagger 0.1 -0.4 97 36 6 LegendMM 99.44     LegendNANA
09:00 Legend Double Dagger -0.3 -1.0 95 5 13 LegendMM 99.54   -4 LegendNANA
10:00 Legend Double Dagger -0.3 -1.2 93 4 7 LegendMM 99.65   -3 LegendNANA
11:00 Legend Double Dagger -0.2 -1.7 90 36 8 LegendMM 99.74   -3 LegendNANA
12:00 Legend Double Dagger 0.0 -1.9 87 3 4 LegendMM 99.82   -1 LegendNANA
13:00 Legend Double Dagger 0.4 -1.6 86 36 1 LegendMM 99.89     LegendNANA
14:00 Legend Double Dagger 1.0 -0.9 88 24 3 LegendMM 99.95     LegendNANA
15:00 Legend Double Dagger 0.8 0.0 95 24 5 LegendMM 100.04     LegendNANA
16:00 Legend Double Dagger 1.1 0.3 95 22 5 LegendMM 100.10     LegendNANA
17:00 Legend Double Dagger 1.4 0.8 96 24 6 LegendMM 100.14     LegendNANA
18:00 Legend Double Dagger 2.2 1.4 94 30 11 LegendMM 100.19     LegendNANA
19:00 Legend Double Dagger 1.8 1.0 94 35 3 LegendMM 100.23     LegendNANA
20:00 Legend Double Dagger 1.7 1.1 96 7 4 LegendMM 100.27     LegendNANA
21:00 Legend Double Dagger 1.0 0.5 97 10 6 LegendMM 100.28     LegendNANA
22:00 Legend Double Dagger 0.7 0.3 97 12 7 LegendMM 100.30     LegendNANA
23:00 Legend Double Dagger 0.5 0.1 97 11 7 LegendMM 100.31     LegendNANA

Notes on Data Quality.

Legend

  • E = Estimated
  • M = Missing
  • NA = Not Available
  • ‡ = Partner data that is not subject to review by the National Climate Archives
Date modified: